Home   Weather   Germantown   Past weeks

Flag for USA Past Weather in Germantown, Maryland, USA — Yesterday and Last 2 Weeks

Now
63 °F

Passing clouds.


Feels Like: 63 °F
Forecast: 41 / 66 °F
Wind: 8 mph from South

Location: Frederick Municipal Airport

Current Time: Feb 24, 2017 at 11:50:57 pm

Latest Report: Feb 24, 2017 at 11:15 pm


Visibility: 10 mi

Pressure: 29.79 "Hg

Humidity: 83%

Dew Point: 57 °F

Location of GermantownLocation

Past Weather in Germantown — Graph

°F

Germantown Temperature Yesterday

Maximum temperature yesterday: 77 °F (at 2:47 pm)
Minimum temperature yesterday: 45 °F (at 12:35 am)
Average temperature yesterday: 57 °F

High & Low Weather Summary for the Past Weeks

 TemperatureHumidityPressure
High77 °F (Feb 23, 2:47 pm)100% (Feb 10, 6:55 am)30.43 "Hg (Feb 10, 6:55 am)
Low21 °F (Feb 10, 1:20 am)25% (Feb 18, 1:47 pm)29.49 "Hg (Feb 15, 11:47 am)
Average43 °F69%30.00 "Hg
* Reported Feb 9 10:00 pm — Feb 24 10:15 pm, Germantown, Weather by CustomWeather, © 2017

Note: Actual official high and low records may vary slightly from our data, if they occured in-between our weather recording intervals... More about our weather records

Advertising

Germantown Weather History for the Previous 24 Hours

Scroll right to see more
 ConditionsComfort  
Time TempWeatherWind HumidityBarometerVisibility
10:15 pm
Fri, Feb 24
63 °FClear.8 mph83%29.79 "Hg10 mi
9:55 pm64 °FClear.8 mph73%29.79 "Hg10 mi
9:15 pm64 °FThundershowers. Clear.12 mph73%29.80 "Hg10 mi
7:54 pm66 °FClear.9 mph64%29.80 "Hg10 mi
6:50 pm70 °FClear.8 mph57%29.80 "Hg10 mi
5:48 pm72 °FSunny.12 mph53%29.80 "Hg10 mi
4:48 pm75 °FScattered clouds.14 mph47%29.80 "Hg10 mi
3:47 pm77 °FScattered clouds.12 mph44%29.81 "Hg10 mi
2:47 pm77 °FScattered clouds.17 mph44%29.83 "Hg10 mi
1:47 pm75 °FSunny.14 mph47%29.85 "Hg10 mi
12:47 pm75 °FSunny.12 mph50%29.87 "Hg10 mi
11:48 am72 °FSunny.14 mph57%29.91 "Hg10 mi
10:48 am68 °FSunny.7 mph64%29.93 "Hg10 mi
9:47 am64 °FSunny.8 mph73%29.95 "Hg10 mi
8:47 am61 °FSunny.7 mph88%29.94 "Hg10 mi
7:47 am50 °FSunny.No wind100%29.94 "Hg10 mi
6:55 am46 °FSunny.No wind100%29.92 "Hg10 mi
6:47 am46 °FClear.No wind100%29.92 "Hg10 mi
6:15 am50 °FClear.No wind100%29.92 "Hg10 mi
5:35 am45 °FClear.No wind100%29.91 "Hg10 mi
5:15 am46 °FClear.No wind100%29.92 "Hg10 mi
4:55 am46 °FClear.No wind100%29.92 "Hg10 mi
4:15 am50 °FClear.No wind100%29.92 "Hg10 mi
3:55 am50 °FClear.No wind100%29.91 "Hg10 mi
3:15 am48 °FPassing clouds.No wind100%29.91 "Hg10 mi
2:55 am50 °FClear.No wind100%29.91 "Hg10 mi
2:15 am52 °FPassing clouds.No wind94%29.91 "Hg10 mi
1:55 am54 °FPassing clouds.No wind88%29.91 "Hg10 mi
1:15 am55 °FClear.No wind82%29.89 "Hg10 mi
12:35 am59 °FClear.5 mph77%29.90 "Hg10 mi
12:15 am61 °FClear.5 mph72%29.90 "Hg10 mi
Weather by CustomWeather, © 2017

See weather overviewHow to use our weather pages